Location: Alfortville
(48.8058°N, 2.4204°E)
Time: 02:30:49
(UTC+00:00)

Envisat - Pass Details

Date: 26 November 2022
Orbit: 763 x 765 km, 98.2° (Epoch: 28 January)

Event Time Altitude Azimuth Distance (km) Brightness Sun altitude
Rises 03:40:43 0° 18° (NNE) 3,246 6.5 -34.7°
Reaches altitude 10° 03:43:08 10° 25° (NNE) 2,315 5.8 -34.3°
Enters shadow 03:46:26 35° 53° (NE) 1,231 4.4 -33.7°
